Location: Buisson
(44.2787°N, 4.9969°E)
Time: 08:03:19
(UTC+00:00)

SL-24 R/B - Pass Details

Date: 18 April 2021
Orbit: 504 x 1003 km, 97.4° (Epoch: 06 May)

Event Time Altitude Azimuth Distance (km) Brightness Sun altitude
Rises 04:02:16 0° 170° (S) 2,941 7.4 -9.0°
Reaches altitude 10° 04:04:35 10° 173° (S) 1,965 6.5 -8.7°
Maximum altitude 04:08:47 73° 258° (WSW) 592 3.8 -8.0°
Drops below altitude 10° 04:12:36 10° 344° (NNW) 1,787 6.5 -7.4°
Sets 04:14:37 0° 346° (NNW) 2,649 7.4 -7.0°
